Regional Weather Roundup
Issued by NWS

Home | Current Version | Previous Version | Graphics & Text | Print | Product List | Glossary On
Versions: 1 2 3 4 5 6 7 8 9 10 11 12 13 14 15 16 17 18 19 20 21 22 23 24 25 26 27 28 29 30 31 32 33 34 35 36 37 38 39 40 41 42 43 44 45 46 47 48 49 50
000
ASUS45 KCYS 211310
RWRWY

WYOMING REGIONAL WEATHER ROUNDUP
NATIONAL WEATHER SERVICE CHEYENNE WY
700 AM MDT THU AUG 21 2014

NOTE:  "FAIR" INDICATES FEW OR NO CLOUDS BELOW 12,000 FEET
WITH NO SIGNIFICANT WEATHER AND/OR OBSTRUCTIONS TO VISIBILITY.

WYZ001-211400-
YELLOWSTONE NATIONAL PARK

CITY           SKY/WX    TMP DP  RH WIND       PRES   REMARKS
LK YELLOWSTONE   N/A     45  44  97 CALM      30.21R
W YELLOWSTONE  NOT AVBL

$$
WYZ002>013-054>058-071-098>099-211400-
NORTHERN WYOMING

CITY           SKY/WX    TMP DP  RH WIND       PRES   REMARKS
JACKSON        RAIN      50  50 100 S5        30.15R FOG
CODY           CLOUDY    57  46  67 N5        30.06R
GREYBULL       CLOUDY    61  52  72 CALM      30.00R
WORLAND        MOCLDY    55  47  74 S7        30.01R
SHERIDAN       CLOUDY    56  49  77 SW5       30.01R
BUFFALO        PTCLDY    55  46  71 NW5       30.04R
GILLETTE       CLEAR     60  53  77 VRB3      29.99R
HULETT         FAIR      55  54  94 MISG      30.00
NEWCASTLE      FAIR      63  46  55 MISG      29.99

$$
WYZ014>020-022>026-101>103-211400-
CENTRAL WYOMING

CITY           SKY/WX    TMP DP  RH WIND       PRES   REMARKS
BIG PINEY      LGT RAIN  48  45  89 SE3       30.19R
PINEDALE       CLOUDY    45  43  93 CALM      30.20R
DUBOIS         CLOUDY    50  41  71 NW12      30.15R
LANDER         MOCLDY    54  46  74 E5        30.05R
RIVERTON       MOCLDY    57  42  57 W7        30.06R
CASPER         PTCLDY    58  45  62 SW10      30.07R
DOUGLAS        CLEAR     57  46  66 N5        30.06R

$$
WYZ021-027>030-104>119-211400-
SOUTHERN WYOMING

CITY           SKY/WX    TMP DP  RH WIND       PRES   REMARKS
EVANSTON       CLOUDY    50  48  93 S7        30.19R
KEMMERER       DRIZZLE   48  46  93 CALM      30.20S
FORT BRIDGER   CLOUDY    52  48  84 W7        30.21R
ROCK SPRINGS   PTCLDY    47  44  90 NE5       30.19
DIXON          FAIR      48  47  93 E3        30.23S
RAWLINS        CLEAR     50  45  83 SW3       30.18R
SARATOGA       FAIR      45  45 100 MISG      30.22S
LARAMIE        PTCLDY    53  43  68 SW12      30.20R
CHEYENNE       PTCLDY    59  44  57 W14       30.13R
TORRINGTON     PTCLDY    56  49  77 CALM      30.00R
PINE BLUFFS    FAIR      54  46  76 W8        30.08R

$$


USA.gov is the U.S. government's official web portal to all federal, state and local government web resources and services.